When you browse on this site, cookies collect data to enhance your experience and personalize the content and advertising you see.
Visit our Privacy Policy to learn more. By continuing to use the site, you agree to this use of cookies and data.
EN

Hourly Weather Biatris

Today, 9 July, Thursday

Time Temperature Precipitation Wind Pressure Humidity
00:00 +12°C° 0 mm 3 mps 656 mmHg 66%
01:00 +11°C° 0 mm 3 mps 655 mmHg 70%
02:00 +12°C° 0 mm 2 mps 655 mmHg 73%
03:00 +10°C° 0 mm 2 mps 655 mmHg 76%
04:00 +10°C° 0 mm 2 mps 654 mmHg 78%
05:00 +9°C° 0 mm 2 mps 654 mmHg 81%
06:00 +12°C° 0 mm 2 mps 655 mmHg 74%
07:00 +14°C° 0 mm 2 mps 656 mmHg 66%
08:00 +15°C° 0 mm 2 mps 656 mmHg 58%
09:00 +18°C° 0 mm 2 mps 657 mmHg 50%
10:00 +22°C° 0 mm 3 mps 657 mmHg 42%
11:00 +26°C° 0 mm 3 mps 658 mmHg 34%
12:00 +26°C° 0 mm 3 mps 657 mmHg 32%
13:00 +27°C° 0 mm 3 mps 657 mmHg 30%
14:00 +28°C° 0 mm 3 mps 656 mmHg 29%
15:00 +27°C° 0 mm 3 mps 656 mmHg 31%
16:00 +26°C° 0 mm 3 mps 655 mmHg 33%
17:00 +25°C° 0 mm 2 mps 655 mmHg 36%
18:00 +22°C° 0 mm 3 mps 655 mmHg 41%
19:00 +21°C° 0 mm 3 mps 655 mmHg 46%
20:00 +19°C° 0 mm 3 mps 655 mmHg 51%
21:00 +19°C° 0 mm 3 mps 655 mmHg 57%
22:00 +18°C° 0 mm 3 mps 655 mmHg 63%
23:00 +17°C° 0 mm 3 mps 655 mmHg 68%

Tomorrow, 10 July, Friday

Time Temperature Precipitation Wind Pressure Humidity
00:00 +16°C° 0 mm 3 mps 654 mmHg 72%
01:00 +14°C° 0 mm 3 mps 654 mmHg 76%
02:00 +14°C° 0 mm 3 mps 654 mmHg 80%
03:00 +13°C° 0 mm 3 mps 654 mmHg 82%
04:00 +14°C° 0 mm 2 mps 654 mmHg 85%
05:00 +14°C° 0 mm 2 mps 654 mmHg 88%
06:00 +14°C° 0 mm 3 mps 654 mmHg 82%
07:00 +16°C° 0 mm 3 mps 655 mmHg 75%
08:00 +17°C° 0 mm 3 mps 655 mmHg 69%
09:00 +20°C° 0 mm 3 mps 656 mmHg 59%
10:00 +23°C° 0 mm 4 mps 656 mmHg 49%
11:00 +26°C° 0 mm 4 mps 657 mmHg 38%
12:00 +27°C° 0 mm 4 mps 656 mmHg 36%
13:00 +28°C° 0 mm 4 mps 656 mmHg 33%
14:00 +28°C° 0 mm 4 mps 655 mmHg 31%
15:00 +27°C° 0 mm 4 mps 655 mmHg 33%
16:00 +26°C° 0 mm 3 mps 654 mmHg 35%
17:00 +25°C° 0 mm 3 mps 654 mmHg 37%
18:00 +24°C° 0 mm 3 mps 654 mmHg 44%
19:00 +21°C° 0 mm 3 mps 654 mmHg 51%
20:00 +20°C° 0 mm 4 mps 654 mmHg 58%
21:00 +19°C° 0 mm 3 mps 654 mmHg 64%
22:00 +18°C° 0 mm 3 mps 654 mmHg 69%
23:00 +17°C° 0 mm 3 mps 654 mmHg 75%

Day after tomorrow, 11 July, Saturday

Time Temperature Precipitation Wind Pressure Humidity
00:00 +17°C° 0 mm 3 mps 654 mmHg 76%
01:00 +16°C° 0 mm 3 mps 653 mmHg 78%
02:00 +16°C° 0 mm 3 mps 653 mmHg 80%
03:00 +16°C° 0 mm 3 mps 653 mmHg 80%
04:00 +14°C° 0 mm 3 mps 653 mmHg 80%
05:00 +14°C° 0 mm 3 mps 653 mmHg 80%
06:00 +17°C° 0 mm 3 mps 654 mmHg 74%
07:00 +18°C° 0 mm 3 mps 654 mmHg 68%
08:00 +19°C° 0 mm 3 mps 655 mmHg 62%
09:00 +22°C° 0 mm 3 mps 656 mmHg 51%
10:00 +26°C° 0 mm 3 mps 656 mmHg 41%
11:00 +28°C° 0 mm 2 mps 657 mmHg 30%
12:00 +29°C° 0 mm 2 mps 656 mmHg 27%
13:00 +30°C° 0 mm 2 mps 656 mmHg 24%
14:00 +31°C° 0 mm 2 mps 655 mmHg 20%
15:00 +29°C° 0 mm 2 mps 655 mmHg 21%
16:00 +28°C° 0 mm 2 mps 654 mmHg 23%
17:00 +27°C° 0 mm 1 mps 654 mmHg 24%
18:00 +25°C° 0 mm 1 mps 654 mmHg 28%
19:00 +23°C° 0 mm 1 mps 654 mmHg 32%
20:00 +20°C° 0 mm 1 mps 654 mmHg 37%
21:00 +19°C° 0 mm 1 mps 654 mmHg 39%
22:00 +18°C° 0 mm 2 mps 655 mmHg 42%
23:00 +17°C° 0 mm 2 mps 655 mmHg 45%

12 July, Sunday

Time Temperature Precipitation Wind Pressure Humidity
00:00 +16°C° 0 mm 3 mps 655 mmHg 46%
01:00 +16°C° 0 mm 3 mps 655 mmHg 47%
02:00 +14°C° 0 mm 4 mps 655 mmHg 48%
03:00 +14°C° 0 mm 4 mps 655 mmHg 43%
04:00 +13°C° 0 mm 4 mps 655 mmHg 38%
05:00 +13°C° 0 mm 4 mps 655 mmHg 33%
06:00 +13°C° 0 mm 5 mps 656 mmHg 35%
07:00 +13°C° 0 mm 5 mps 656 mmHg 36%
08:00 +13°C° 0 mm 6 mps 657 mmHg 38%
09:00 +15°C° 0 mm 6 mps 657 mmHg 40%
10:00 +17°C° 0 mm 5 mps 657 mmHg 42%
11:00 +20°C° 0 mm 5 mps 658 mmHg 44%
12:00 +21°C° 0 mm 5 mps 657 mmHg 42%
13:00 +22°C° 0 mm 4 mps 657 mmHg 40%
14:00 +25°C° 0 mm 4 mps 657 mmHg 38%
15:00 +23°C° 0 mm 4 mps 656 mmHg 41%
16:00 +22°C° 0 mm 4 mps 656 mmHg 44%
17:00 +21°C° 0 mm 5 mps 656 mmHg 46%
18:00 +19°C° 0 mm 5 mps 656 mmHg 53%
19:00 +17°C° 0 mm 4 mps 656 mmHg 60%
20:00 +14°C° 0 mm 4 mps 656 mmHg 67%
21:00 +13°C° 0 mm 4 mps 656 mmHg 73%
22:00 +12°C° 0 mm 4 mps 656 mmHg 79%
23:00 +11°C° 0 mm 3 mps 655 mmHg 85%

13 July, Monday

Time Temperature Precipitation Wind Pressure Humidity
00:00 +10°C° 0 mm 3 mps 655 mmHg 88%
01:00 +10°C° 0 mm 3 mps 654 mmHg 91%
02:00 +9°C° 0 mm 2 mps 654 mmHg 93%
03:00 +9°C° 0 mm 2 mps 654 mmHg 93%
04:00 +9°C° 0 mm 2 mps 654 mmHg 93%
05:00 +9°C° 0 mm 2 mps 654 mmHg 93%
06:00 +10°C° 0 mm 2 mps 655 mmHg 86%
07:00 +13°C° 0 mm 2 mps 655 mmHg 79%
08:00 +14°C° 0 mm 2 mps 656 mmHg 72%
09:00 +17°C° 0 mm 2 mps 656 mmHg 61%
10:00 +20°C° 0 mm 2 mps 657 mmHg 50%
11:00 +25°C° 0 mm 2 mps 657 mmHg 39%
12:00 +26°C° 0 mm 1 mps 657 mmHg 35%
13:00 +27°C° 0 mm 1 mps 656 mmHg 30%
14:00 +29°C° 0 mm 1 mps 656 mmHg 26%
15:00 +27°C° 0 mm 1 mps 656 mmHg 27%
16:00 +26°C° 0 mm 1 mps 655 mmHg 29%
17:00 +25°C° 0 mm 1 mps 655 mmHg 30%
18:00 +23°C° 0 mm 1 mps 655 mmHg 36%
19:00 +20°C° 0 mm 2 mps 655 mmHg 42%
20:00 +18°C° 0 mm 2 mps 654 mmHg 48%
21:00 +17°C° 0 mm 2 mps 654 mmHg 54%
22:00 +15°C° 0 mm 2 mps 654 mmHg 59%
23:00 +14°C° 0 mm 2 mps 654 mmHg 65%

14 July, Tuesday

Time Temperature Precipitation Wind Pressure Humidity
00:00 +13°C° 0 mm 2 mps 654 mmHg 69%
01:00 +13°C° 0 mm 2 mps 653 mmHg 73%
02:00 +12°C° 0 mm 2 mps 653 mmHg 77%
03:00 +12°C° 0 mm 2 mps 653 mmHg 82%
04:00 +11°C° 0 mm 1 mps 653 mmHg 86%
05:00 +11°C° 0 mm 1 mps 652 mmHg 90%
06:00 +13°C° 0 mm 1 mps 653 mmHg 83%
07:00 +14°C° 0 mm 1 mps 654 mmHg 76%
08:00 +16°C° 0 mm 1 mps 655 mmHg 69%
09:00 +20°C° 0 mm 1 mps 656 mmHg 57%
10:00 +23°C° 0 mm 1 mps 656 mmHg 45%
11:00 +26°C° 0 mm 1 mps 657 mmHg 33%
12:00 +27°C° 0 mm 1 mps 656 mmHg 29%
13:00 +28°C° 0 mm 1 mps 656 mmHg 24%
14:00 +29°C° 0 mm 1 mps 656 mmHg 20%
15:00 +27°C° 0 mm 2 mps 655 mmHg 22%
16:00 +26°C° 0 mm 2 mps 655 mmHg 23%
17:00 +25°C° 0 mm 3 mps 655 mmHg 25%
18:00 +22°C° 0 mm 3 mps 655 mmHg 30%
19:00 +19°C° 0 mm 3 mps 655 mmHg 35%
20:00 +17°C° 0 mm 3 mps 655 mmHg 40%
21:00 +16°C° 0 mm 3 mps 655 mmHg 42%
22:00 +14°C° 0 mm 3 mps 655 mmHg 43%
23:00 +13°C° 0 mm 3 mps 655 mmHg 45%
Show more